DELTA 1 DEB, 21463

Orbit data source: Space-Track

DELTA 1 DEB, 21463 is space debris in SSO originally from a launch on Thu, 12 Jun 1975 UTC launched from the Air Force Western Test Range (AFWTR). Debris objects in space refer to the collection of defunct objects orbiting the Earth. Examples of debris include non-operational satellites, rocket bodies, and fragments generated from explosions, collisions, or faulty payload assembly.

Loading next visibility...
Identifier
21463, 1975-052EX
Orbit
SSO
Country
Flag of USUS
Related business
Manufacturer
Unknown
Mission
Spacecraft
Bus & Motor
Unknown
Mass
Unknown
Launch date (UTC)
1975-06-12 (51 years ago)
Launch vehicle
Unknown
Launch site
Air Force Western Test Range (AFWTR)
Object type
Payload
Rocket body
Debris
Shape & HBR
Unknown shape, 0.1 m
Radar Cross Section
Small (<0.1 m²)

Expand to show TLE details & history
Last TLE update: 2 days ago

TLE from 2 days ago
0 DELTA 1 DEB
1 21463U 75052EX  26123.62218225  .00000203  00000-0  32340-3 0  9997
2 21463  99.8362 359.0550 0155133 339.5055  46.9432 13.57167983729365
Epoch: 2026-05-03T14:55Z
TLE epoch observation values (Epoch: 2026-05-03T14:55:56.546Z)
Latitude
27.36285°
Longitude
-91.57483°
Altitude
971.566 km
Speed
7.407 km/s
True Right ascension
23h 35m 44s
True Declination
27° 13' 36"
Sunlit
Object was in daylight at epoch
Visualization orbit readout
Latitude
Unknown
Longitude
Unknown
Altitude
Unknown
Speed
Unknown
Apparent Right ascension
Unknown
Apparent Declination
Unknown
Sunlit
N/A
Visualization observer readout
Local Sidereal Time
11:20:33
Azimuth
Unknown
Elevation
Unknown
Doppler factor
Unknown
Orbital elements
Apogee altitude
1,158.431 km
Perigee altitude
928.169 km
Semi-major axis
7,421.437 km
Eccentricity
0.01551
Inclination
99.8362°
RAAN
359.055°
Arg. of periapsis
339.5055°
True anomaly
48.25942°
Mean anomaly
46.9432°
Eccentric anomaly
47.59957°
Mean motion
3.39478 °/min
Orbital period
106.05 mins
BSTAR
0.0003234
Loading maneuver chart data...
Computing Atmospheric mass density...
Loading historical data...
Loading historical data...
Loading historical data...
Loading historical data...
Loading historical data...
Loading historical data...
Loading historical data...

Documentation

Showing up to 5 results
|